This is the latest recevied weather packets stored in our database for station/object MIDVIL-WX. If no packets are shown the sender has not sent any weather packets the latest 10 day(s).
| Time | Temp. | Humidity | Pressure | Rain* | Wind** | Luminosity | Snow |
|---|---|---|---|---|---|---|---|
| 1777580127 | 9.44° C | 44% | 989.4 hPa | 0 mm | - | - | - |
| 1777579251 | 9.44° C | 44% | 989.4 hPa | 0 mm | - | - | - |
| 1777578327 | 9.44° C | 44% | 989.5 hPa | 0 mm | - | - | - |
| 1777577439 | 10° C | 44% | 989.5 hPa | 0 mm | - | - | - |
| 1777576527 | 9.44° C | 44% | 989.5 hPa | 0 mm | - | - | - |
| 1777575649 | 9.44° C | 44% | 989.5 hPa | 0 mm | - | - | - |
| 1777574727 | 9.44° C | 47% | 989.4 hPa | 0 mm | - | - | - |
| 1777573838 | 9.44° C | 47% | 989.2 hPa | 0 mm | - | - | - |
| 1777572925 | 9.44° C | 47% | 989.2 hPa | 0 mm | - | - | - |
| 1777572052 | 9.44° C | 47% | 989.2 hPa | 0 mm | - | - | - |
| 1777571126 | 9.44° C | 54% | 989.6 hPa | 0 mm | - | - | - |
| 1777570242 | 9.44° C | 50% | 990 hPa | 0 mm | - | - | - |
| 1777569326 | 9.44° C | 50% | 990 hPa | 0 mm | - | - | - |
| 1777568449 | 8.89° C | 50% | 990 hPa | 0 mm | - | - | - |
| 1777567525 | 8.89° C | 56% | 988.8 hPa | 0 mm | - | - | - |
| 1777566643 | 8.89° C | 59% | 989.3 hPa | 0 mm | - | - | - |
| 1777565725 | 8.89° C | 59% | 989.3 hPa | 0 mm | - | - | - |
| 1777564853 | 8.89° C | 59% | 989.3 hPa | 0 mm | - | - | - |
| 1777563924 | 8.33° C | 69% | 989.1 hPa | 0 mm | - | - | - |
| 1777563044 | 8.33° C | 72% | 989.6 hPa | 0 mm | - | - | - |
| 1777562126 | 7.22° C | 72% | 989.6 hPa | 0 mm | - | - | - |
| 1777561249 | 7.22° C | 72% | 989.6 hPa | 0 mm | - | - | - |
| 1777560327 | 6.67° C | 78% | 988.8 hPa | 0 mm | - | - | - |
| 1777559447 | 6.67° C | 78% | 990.2 hPa | 0 mm | - | - | - |
| 1777558526 | 6.67° C | 78% | 990.3 hPa | 0 mm | - | - | - |
* Rain latest hour (hover to see other rain measurements)
** Current wind speed in m/s (hover to see current wind gust speed)